星链-31145 (STARLINK-31145 )

导读 | 星芒AI

STARLINK-31145 是 SpaceX Starlink 项目中的一颗低轨通信卫星,属于第三代星链卫星(Starlink V1.5 或 V2)。该卫星于2023年发射,旨在为全球用户提供高速、低延迟的互联网服务。它运行在约550公里高的近地轨道,采用先进的推进系统和激光通信技术,以提高网络效率和减少空间碎片风险。作为星链星座的一部分,STARLINK-31145 支持偏远地区的宽带接入,推动全球互联网覆盖的扩展。

基本信息
目录编号:
58768
目录名称:
STARLINK-31145
国际标识:
2024-011D
轨道中心:
EARTH
卫星名称:
星链-31145
卫星全名:
星链-31145 (STARLINK-31145 )
卫星状态:
在轨 (已飞行656 天)
发射日期:
2024-01-14 UTC
国别 :
美国 (US)
星等 :
--
轨道信息
数据来源 国际轨道数据
星历时间: 2025-11-01T00:00:02+0800
4小时前
查看轨道信息
半长轴: 6869.727km
偏心率: 0.0006132
轨道倾角: 53.151°
近地点辐角 117.093°
升交点赤经 261.352°
平近点角 5.651°
近地点: 487.379km
远地点: 495.805km
周期: 94.443分钟
每日圈数: 15.247324
详细信息
固有亮度:
5
最大亮度:
0.3
卫星平台:
Starlink v2.0 mini
覆盖范围:
全球
运营商:
太空探索技术公司
运营商所在国:
美国
制造商(研发单位):
太空探索技术公司
制造商所在国:
美国
使用方式:
暂无
卫星简介
星链(Starlink)计划是由太空探索技术公司(SpaceX)提出的一个巨型低轨卫星互联网星座项目,计划在2019年至2024年间在太空搭建由约1.2万颗卫星组成的“星链”网络,其中1584颗将部署在地球上空550千米处的近地轨道,并从2020年开始工作。该卫星仍在工作。
2D轨道图
3D轨道图
轨道高度分析图
轨道倾角分析图
轨道综合分析图
查看轨道综合分析图